KURESSAARE current weather conditions

sailwx.info

Wind from 140 at 7 knots

Air temperature 4.0° C
Visibility: greater than 3.2 NM
Dewpoint 3.0° C
Present weather: Light rain.

Last reported at 2015-Mar-27 18:50 UTC.
Time now 2015-Mar-27 20:57 UTC

Location: N 58°14' E 022°31'.
View on Google Maps.

See reports from other nearby stations

  
Tides and Currents Weather Stations Pressure Air Temp Water Temp Dewpoint Dewpoint Depression Visibility Wind Speed Wind Dir Waves Ship Positions
date/time (UTC)wind fromknots sea level pressurealtimeterstation pressurevisibilityair tempwater tempwave heightnotes
2015-Mar-27 18:50 140 7 3.2 4.0 Light rain.
2015-Mar-27 17:50 120 7 3.2 4.0 Drizzle.
2015-Mar-27 16:50 150 9 2.7 4.0 Mist.
2015-Mar-27 15:50 140 10 3.2 4.0
2015-Mar-27 14:50 150 10 2.7 4.0 Mist.
2015-Mar-27 13:50 150 13 2.7 4.0 Mist.
2015-Mar-27 12:50 140 12 2.7 4.0 Mist.
2015-Mar-27 11:50 130 13 3.8 4.0
2015-Mar-27 10:50 130 13 3.8 4.0
2015-Mar-27 09:50 120 14 4.3 3.0
2015-Mar-27 08:50 130 15 3.8 3.0 Light rain.
2015-Mar-27 07:50 130 16 3.2 3.0 Light rain drizzle.
2015-Mar-27 06:50 120 15 2.4 3.0 Rain drizzle. Mist.
2015-Mar-27 05:50 110 15 4.3 3.0 Light rain.
2015-Mar-27 04:50 110 15 5.4 3.0 Light drizzle.
2015-Mar-27 03:50 110 14 5.4 3.0
2015-Mar-27 02:50 110 16 5.4 4.0
2015-Mar-27 01:50 110 14 5.4 4.0
2015-Mar-27 00:50 100 13 5.4 4.0
2015-Mar-26 23:50 100 13 5.4 4.0
2015-Mar-26 22:50 100 14 5.4 4.0
2015-Mar-26 21:50 100 14 5.4 4.0
2015-Mar-26 20:50 100 15 5.4 4.0
2015-Mar-26 19:50 110 14 5.4 4.0
2015-Mar-26 18:50 100 15 5.4 4.0
2015-Mar-26 17:50 100 16 5.4 4.0
2015-Mar-26 16:50 100 17 4.0
2015-Mar-26 15:50 100 20 4.0
2015-Mar-26 14:50 100 19 4.0
2015-Mar-26 13:50 090 19 4.0
2015-Mar-26 11:50 100 18 gusting 27 5.4 4.0
2015-Mar-26 10:50 100 19 4.0
2015-Mar-26 09:50 100 16 3.0
2015-Mar-26 08:50 110 18 2.0
2015-Mar-26 07:50 110 17 gusting 27 2.0
2015-Mar-26 06:50 110 17 1.0
2015-Mar-26 05:50 100 14 1.0
2015-Mar-26 04:50 100 13 5.4 1.0
2015-Mar-26 03:50 100 13 5.4 1.0
2015-Mar-26 02:50 100 13 5.4 1.0
2015-Mar-26 01:50 100 12 5.4 1.0
2015-Mar-26 00:50 090 12 5.4 1.0
2015-Mar-25 23:50 090 11 5.4 1.0
2015-Mar-25 22:50 080 10 5.4 1.0
2015-Mar-25 21:50 080 10 5.4 1.0
2015-Mar-25 20:50 080 9 5.4 1.0